SUPERVIEW NEO-1 01

导读 | 星芒AI

SUPERVIEW NEO-1 01 是中国高分辨率商业遥感卫星“超算星座”计划的一部分,由长光卫星技术有限公司研制。该卫星具备高分辨率、多光谱成像能力,主要用于土地监测、城市规划、灾害评估等领域。其发射提升了中国在商业遥感领域的数据获取能力和应用水平,为政府、企业和科研机构提供高效、精准的遥感数据服务。

基本信息
目录编号:
52320
目录名称:
SUPERVIEW NEO-1 01
国际标识:
2022-043A
轨道中心:
EARTH
卫星名称:
SUPERVIEW NEO-1 01
卫星全名:
--
卫星状态:
在轨 (已飞行1324 天)
发射日期:
2022-04-29 UTC
国别 :
中国 (CN)
星等 :
--
轨道信息
数据来源 国际轨道数据
星历时间: 2025-12-13T08:29:31+0800
9小时前
查看轨道信息
半长轴: 6900.955km
偏心率: 0.0001592
轨道倾角: 97.362°
近地点辐角 155.144°
升交点赤经 60.832°
平近点角 204.987°
近地点: 521.721km
远地点: 523.919km
周期: 95.088分钟
每日圈数: 15.143944
详细信息
使用方式:
暂无
2D轨道图
3D轨道图
轨道高度分析图
轨道倾角分析图
轨道综合分析图
查看轨道综合分析图